{"data":{"norad_id":63977,"epoch":"2026-05-25T04:15:31.421664Z","epoch_age_seconds":49950,"freshness":"FRESH","line1":"1 63977U 25099AB  26145.17744701  .00016154  00000+0  59506-3 0  9990","line2":"2 63977  43.0022 100.8252 0000817 277.7046  82.3713 15.27591186 58981","mean_motion":15.27591186,"eccentricity":8.17e-5,"inclination_deg":43.0022,"raan_deg":100.8252,"arg_perigee_deg":277.7046,"mean_anomaly_deg":82.3713,"bstar":0.00059506,"rev_number":5898,"period_min":94.266058432207,"perigee_km":482.45504516837,"apogee_km":483.57615750343,"semimajor_km":6861.1526013359,"source":"CELESTRAK","updated_at":"2026-05-25T13:38:20.216429Z"}}